Regional Weather Roundup
Issued by NWS Sioux Falls, SD

Home | Current Version | Previous Version | Graphics & Text | Print | Product List | Glossary Off
Versions: 1 2 3 4 5 6 7 8 9 10 11 12 13 14 15 16 17 18 19 20 21 22 23 24 25 26 27 28 29 30 31 32 33 34 35 36 37 38 39 40 41 42 43 44 45 46 47 48 49 50

000
ASUS43 KFSD 291610
RWRFSD

WEATHER ROUNDUP FOR SE SOUTH DAKOTA/SW MINNESOTA/NW IOWA
NATIONAL WEATHER SERVICE SIOUX FALLS SD
1100 AM CDT FRI MAY 29 2015

NOTE: "FAIR" INDICATES FEW OR NO CLOUDS BELOW 12,000 FEET WITH NO
SIGNIFICANT WEATHER AND OR OBSTRUCTIONS TO VISIBILITY.


SDZ038>040-050-052>070-291700-
SOUTHEAST SOUTH DAKOTA

CITY           SKY/WX    TMP DP  RH WIND       PRES   REMARKS
BROOKINGS      CLOUDY    55  52  88 N16G25    29.95R
CHAMBERLAIN    HVY RAIN  54  53  96 N16G32    30.02R
HURON            N/A    N/A N/A N/A MISG      29.99R
MADISON        RAIN      59  59 100 NE18G24   29.93R
MITCHELL       LGT RAIN  62  60  93 N21G31    29.94R
SIOUX FALLS    CLOUDY    68  63  84 NW3       29.89S
WINNER         CLOUDY    60  54  80 N29G41    30.02R
YANKTON        PTSUNNY   66  61  82 NW6       29.89S
$$

MNZ071-072-080-081-089-090-097-098-291700-
SOUTHWEST MINNESOTA

CITY           SKY/WX    TMP DP  RH WIND       PRES   REMARKS
FAIRMONT       CLOUDY    66  61  82 SW12      29.91R
JACKSON        LGT RAIN  66  64  94 SW9       29.92S
LUVERNE        DRIZZLE   66  63  88 CALM      29.90S
MARSHALL       CLOUDY    61  55  82 N16G25    29.92R
MONTEVIDEO     RAIN      61  61 100 N17G23    29.95R
REDWOOD FALLS  LGT RAIN  66  63  90 N3        29.90S
TRACY          RAIN      63  62  97 N9        29.92R
WINDOM         CLOUDY    66  63  88 CALM      29.91F
WORTHINGTON    CLOUDY    64  63  94 S8        29.91F
$$

IAZ001>003-012>014-020>022-031-032-NEZ013-014-SDZ071-291700-
NORTHWEST IOWA

CITY           SKY/WX    TMP DP  RH WIND       PRES   REMARKS
CHEROKEE       CLOUDY    70  65  84 SW13      29.90F
DENISON        CLOUDY    70  70 100 SW8       29.90F
ESTHERVILLE    LGT RAIN  65  64  97 SW13      29.91S FOG
LE MARS        CLOUDY    66  63  88 CALM      29.91S
ORANGE CITY    CLOUDY    64  63  94 W7        29.90S
SHELDON        CLOUDY    66  66 100 S7        29.89S FOG
SIOUX CITY     CLOUDY    69  60  73 SW6       29.89F
SPENCER        CLOUDY    68  65  90 S8        29.91S
STORM LAKE     CLOUDY    68  64  88 SW13      29.92F
$$

ABBREVIATIONS USED IN REMARKS
   TC - TEMPERATURE IN CELSIUS
  WCI - WIND CHILL INDEX
   HX - HEAT INDEX
  VSB - VISIBILITY



USA.gov is the U.S. government's official web portal to all federal, state and local government web resources and services.